Weather History for Valparaiso, IN

Change the Weather History Date:

Saturday, March 22, 2014

  Actual Average Record
Temperature  
Mean Temperature 34 °F 40 °F  
Max Temperature 42 °F 49 °F 83 °F (2012)
Min Temperature 26 °F 31 °F 8 °F (1940)
Degree Days  
Heating Degree Days 31 25  
Month to date heating degree days 718 636  
Since 1 July heating degree days 6167 5368  
Cooling Degree Days 0 0  
Month to date cooling degree days 0 0  
Year to date cooling degree days 0 0  
Moisture  
Dew Point 27 °F    
Average Humidity 71    
Maximum Humidity 85    
Minimum Humidity 55    
Precipitation  
Precipitation 0.00 in 0.09 in 1.22 in (1916)
Month to date precipitation 0.60 1.65  
Year to date precipitation 3.23 4.82  
Sea Level Pressure  
Sea Level Pressure 30.11 in    
Wind  
Wind Speed 9 mph (NNW)    
Max Wind Speed 21 mph    
Max Gust Speed 28 mph    
Visibility 10 miles    
Events      
T = Trace of Precipitation, MM = Missing Value Source: NWS Daily Summary

Daily Weather History Graph

Daily Weather History Graph

Search for Another Location

Airport:

Trip Planner

Search our weather history database for the weather conditions in past years. The results will help you decide how hot, cold, wet, or windy it might be!

Date:

Astronomy

Mar. 22, 2014 Rise Set
Actual Time 6:47 AM CDT 7:02 PM CDT
Civil Twilight 6:20 AM CDT 7:30 PM CDT
Nautical Twilight 5:47 AM CDT 8:02 PM CDT
Astronomical Twilight 5:14 AM CDT 8:35 PM CDT
Moon 12:24 AM CDT (3/22) 10:27 AM CDT (3/22)
Length of Visible Light 13h 09m
Length of Day
12h 14m
Waning Gibbous, 65% of the Moon is Illuminated
Mar 22
Waning Gibbous
Mar 23
Last Quarter
Mar 30
New
Apr 7
First Quarter
Apr 15
Full

Hourly Weather History & Observations

Time (CDT) Temp. Windchill Dew Point Humidity Pressure Visibility Wind Dir Wind Speed Gust Speed Precip Events Conditions
12:53 AM 43.0 °F 36.4 °F 30.9 °F 62% 29.84 in 10.0 mi WNW 12.7 mph - N/A   Clear
1:53 AM 39.9 °F 31.8 °F 33.1 °F 77% 29.88 in 10.0 mi NW 15.0 mph 23.0 mph N/A   Overcast
2:00 AM 39.9 °F 32.9 °F 32.0 °F 73% 29.87 in 10.0 mi NW 11.5 mph - N/A   Overcast
2:53 AM 39.0 °F 33.4 °F 30.0 °F 70% 29.92 in 10.0 mi NW 8.1 mph 20.7 mph N/A   Overcast
3:08 AM 37.9 °F 30.9 °F 28.9 °F 70% 29.91 in 10.0 mi NNW 10.4 mph - N/A   Mostly Cloudy
3:53 AM 36.0 °F 28.5 °F 27.0 °F 70% 29.95 in 10.0 mi NNW 10.4 mph 20.7 mph N/A   Clear
4:23 AM 37.0 °F 29.8 °F 27.0 °F 67% 29.95 in 10.0 mi NW 10.4 mph 16.1 mph N/A   Overcast
4:53 AM 37.0 °F 29.3 °F 28.0 °F 70% 29.98 in 10.0 mi NNW 11.5 mph - N/A   Overcast
5:53 AM 37.0 °F 29.3 °F 28.9 °F 73% 30.01 in 10.0 mi NNW 11.5 mph - N/A   Overcast
6:53 AM 37.0 °F 31.0 °F 28.9 °F 73% 30.04 in 10.0 mi NNW 8.1 mph - N/A   Overcast
7:53 AM 36.0 °F 29.6 °F 28.9 °F 76% 30.08 in 10.0 mi NNW 8.1 mph 20.7 mph N/A   Overcast
8:53 AM 36.0 °F 29.0 °F 28.0 °F 73% 30.12 in 10.0 mi NNW 9.2 mph - N/A   Overcast
9:53 AM 37.0 °F 29.8 °F 28.0 °F 70% 30.15 in 10.0 mi NW 10.4 mph - N/A   Overcast
10:53 AM 37.0 °F 30.4 °F 27.0 °F 67% 30.17 in 10.0 mi NNW 9.2 mph 19.6 mph N/A   Overcast
11:03 AM 37.9 °F 30.9 °F 27.0 °F 65% 30.15 in 10.0 mi North 10.4 mph - N/A   Overcast
11:29 AM 37.9 °F 30.9 °F 27.0 °F 65% 30.15 in 10.0 mi North 10.4 mph - N/A   Overcast
11:53 AM 39.0 °F 32.3 °F 27.0 °F 62% 30.17 in 10.0 mi North 10.4 mph - N/A   Overcast
12:53 PM 39.9 °F 32.9 °F 26.1 °F 58% 30.18 in 10.0 mi North 11.5 mph - N/A   Overcast
1:53 PM 39.9 °F 34.5 °F 25.0 °F 55% 30.18 in 10.0 mi NNW 8.1 mph - N/A   Overcast
2:53 PM 39.9 °F 35.1 °F 25.0 °F 55% 30.18 in 10.0 mi North 6.9 mph - N/A   Overcast
3:53 PM 37.9 °F 30.0 °F 27.0 °F 65% 30.19 in 10.0 mi North 12.7 mph - N/A   Overcast
4:53 PM 36.0 °F 28.0 °F 28.0 °F 73% 30.20 in 10.0 mi NNE 11.5 mph - N/A   Overcast
5:53 PM 33.1 °F 25.5 °F 26.1 °F 75% 30.22 in 10.0 mi North 9.2 mph - N/A   Overcast
6:53 PM 30.9 °F 23.5 °F 25.0 °F 79% 30.25 in 10.0 mi North 8.1 mph - N/A   Overcast
7:53 PM 30.0 °F 23.2 °F 25.0 °F 82% 30.26 in 10.0 mi North 6.9 mph - N/A   Overcast
8:53 PM 28.9 °F 23.9 °F 24.1 °F 82% 30.27 in 10.0 mi NNE 4.6 mph - N/A   Mostly Cloudy
9:53 PM 28.0 °F 24.2 °F 24.1 °F 85% 30.28 in 10.0 mi North 3.5 mph - N/A   Partly Cloudy
10:53 PM 28.0 °F 19.3 °F 24.1 °F 85% 30.29 in 10.0 mi NNE 9.2 mph - N/A   Mostly Cloudy
11:44 PM 27.0 °F 19.5 °F 21.9 °F 81% 30.29 in 10.0 mi NNE 6.9 mph - N/A   Overcast
11:53 PM 27.0 °F 18.7 °F 21.9 °F 81% 30.31 in 10.0 mi NNE 8.1 mph - N/A   Mostly Cloudy